Location: Kalisz
(51.7636°N, 18.0893°E)
Time: 02:09:46
(UTC+02:00)

ISS - Pass Details

Date: 24 March 2019
Orbit: 408 x 410 km, 51.6° (Epoch: 21 April)

Event Time Altitude Azimuth Distance (km) Brightness Sun altitude
Rises 19:28:06 0° 231° (SW) 2,329 0.5 -13.1°
Reaches altitude 10° 19:30:15 10° 223° (SW) 1,470 -0.7 -13.4°
Maximum altitude 19:33:20 37° 154° (SSE) 649 -3.2 -13.8°
Enters shadow 19:34:21 29° 113° (ESE) 782 -3.0 -14.0°
